Météo par heure à Junnar

Ce jour, 20 Juin, Dimanche

Heure Température Précipitation Vent Pression Humidité
00:00 +23°C° 0.2 mm 4 m/s 695 mmHg 86%
01:00 +23°C° 0.2 mm 4 m/s 695 mmHg 86%
02:00 +23°C° 0.2 mm 4 m/s 695 mmHg 86%
03:00 +23°C° 0.1 mm 4 m/s 695 mmHg 87%
04:00 +22°C° 0.1 mm 4 m/s 695 mmHg 88%
05:00 +22°C° 0 mm 3 m/s 695 mmHg 89%
06:00 +23°C° 0.1 mm 4 m/s 695 mmHg 87%
07:00 +23°C° 0.1 mm 4 m/s 696 mmHg 85%
08:00 +23°C° 0.1 mm 4 m/s 696 mmHg 83%
09:00 +26°C° 0.1 mm 5 m/s 696 mmHg 78%
10:00 +27°C° 0.1 mm 6 m/s 697 mmHg 72%
11:00 +28°C° 0.1 mm 7 m/s 697 mmHg 66%
12:00 +28°C° 0.1 mm 7 m/s 696 mmHg 64%
13:00 +29°C° 0.1 mm 7 m/s 696 mmHg 63%
14:00 +29°C° 0.1 mm 7 m/s 696 mmHg 61%
15:00 +28°C° 0.2 mm 7 m/s 696 mmHg 64%
16:00 +27°C° 0.2 mm 6 m/s 696 mmHg 66%
17:00 +27°C° 0.2 mm 6 m/s 695 mmHg 69%
18:00 +26°C° 0.1 mm 5 m/s 696 mmHg 72%
19:00 +25°C° 0.1 mm 5 m/s 696 mmHg 75%
20:00 +25°C° 0.1 mm 4 m/s 697 mmHg 78%
21:00 +23°C° 0 mm 4 m/s 697 mmHg 79%
22:00 +24°C° 0 mm 3 m/s 697 mmHg 81%
23:00 +24°C° 0 mm 3 m/s 697 mmHg 82%

Demain, 21 Juin, Lundi

Heure Température Précipitation Vent Pression Humidité
00:00 +24°C° 0 mm 3 m/s 697 mmHg 83%
01:00 +22°C° 0 mm 3 m/s 696 mmHg 84%
02:00 +22°C° 0 mm 3 m/s 696 mmHg 85%
03:00 +22°C° 0 mm 3 m/s 696 mmHg 86%
04:00 +22°C° 0 mm 3 m/s 695 mmHg 88%
05:00 +22°C° 0 mm 3 m/s 695 mmHg 89%
06:00 +24°C° 0 mm 3 m/s 696 mmHg 86%
07:00 +23°C° 0 mm 4 m/s 696 mmHg 82%
08:00 +25°C° 0 mm 4 m/s 697 mmHg 79%
09:00 +26°C° 0.1 mm 5 m/s 697 mmHg 74%
10:00 +27°C° 0.1 mm 5 m/s 697 mmHg 68%
11:00 +29°C° 0.1 mm 5 m/s 697 mmHg 63%
12:00 +29°C° 0.1 mm 6 m/s 697 mmHg 61%
13:00 +29°C° 0.1 mm 6 m/s 697 mmHg 60%
14:00 +30°C° 0.1 mm 6 m/s 696 mmHg 58%
15:00 +29°C° 0.1 mm 6 m/s 696 mmHg 61%
16:00 +28°C° 0.1 mm 5 m/s 696 mmHg 64%
17:00 +28°C° 0.1 mm 5 m/s 696 mmHg 66%
18:00 +27°C° 0 mm 4 m/s 697 mmHg 70%
19:00 +26°C° 0 mm 4 m/s 697 mmHg 73%
20:00 +25°C° 0 mm 3 m/s 697 mmHg 76%
21:00 +25°C° 0 mm 3 m/s 697 mmHg 78%
22:00 +25°C° 0 mm 3 m/s 697 mmHg 80%
23:00 +24°C° 0 mm 3 m/s 697 mmHg 82%

Après-demain, 22 Juin, Mardi

Heure Température Précipitation Vent Pression Humidité
00:00 +24°C° 0 mm 3 m/s 696 mmHg 83%
01:00 +24°C° 0 mm 3 m/s 696 mmHg 84%
02:00 +24°C° 0 mm 3 m/s 696 mmHg 85%
03:00 +24°C° 0 mm 3 m/s 696 mmHg 86%
04:00 +22°C° 0 mm 3 m/s 696 mmHg 87%
05:00 +23°C° 0 mm 2 m/s 696 mmHg 88%
06:00 +24°C° 0 mm 3 m/s 696 mmHg 84%
07:00 +25°C° 0 mm 3 m/s 697 mmHg 80%
08:00 +26°C° 0 mm 4 m/s 698 mmHg 75%
09:00 +27°C° 0 mm 4 m/s 698 mmHg 70%
10:00 +28°C° 0 mm 4 m/s 698 mmHg 65%
11:00 +29°C° 0 mm 5 m/s 698 mmHg 59%
12:00 +30°C° 0.1 mm 5 m/s 698 mmHg 58%
13:00 +30°C° 0.1 mm 5 m/s 697 mmHg 56%
14:00 +32°C° 0.1 mm 6 m/s 697 mmHg 55%
15:00 +30°C° 0.1 mm 5 m/s 697 mmHg 57%
16:00 +30°C° 0.1 mm 5 m/s 697 mmHg 59%
17:00 +29°C° 0.1 mm 5 m/s 697 mmHg 61%
18:00 +28°C° 0 mm 5 m/s 697 mmHg 66%
19:00 +27°C° 0 mm 4 m/s 697 mmHg 70%
20:00 +26°C° 0 mm 4 m/s 697 mmHg 74%
21:00 +26°C° 0 mm 4 m/s 697 mmHg 76%
22:00 +25°C° 0 mm 4 m/s 697 mmHg 78%
23:00 +25°C° 0 mm 3 m/s 697 mmHg 79%

23 Juin, Mercredi

Heure Température Précipitation Vent Pression Humidité
00:00 +25°C° 0 mm 3 m/s 697 mmHg 81%
01:00 +24°C° 0 mm 3 m/s 696 mmHg 82%
02:00 +24°C° 0 mm 3 m/s 696 mmHg 84%
03:00 +24°C° 0 mm 3 m/s 696 mmHg 85%
04:00 +24°C° 0 mm 3 m/s 696 mmHg 86%
05:00 +23°C° 0 mm 2 m/s 696 mmHg 88%
06:00 +24°C° 0 mm 3 m/s 696 mmHg 84%
07:00 +25°C° 0 mm 3 m/s 697 mmHg 79%
08:00 +26°C° 0 mm 4 m/s 697 mmHg 75%
09:00 +27°C° 0 mm 4 m/s 698 mmHg 70%
10:00 +28°C° 0 mm 4 m/s 698 mmHg 64%
11:00 +30°C° 0 mm 4 m/s 698 mmHg 59%
12:00 +30°C° 0 mm 5 m/s 697 mmHg 57%
13:00 +32°C° 0 mm 5 m/s 697 mmHg 54%
14:00 +32°C° 0 mm 6 m/s 697 mmHg 52%
15:00 +32°C° 0 mm 5 m/s 697 mmHg 55%
16:00 +30°C° 0 mm 5 m/s 697 mmHg 57%
17:00 +29°C° 0 mm 5 m/s 697 mmHg 60%
18:00 +28°C° 0 mm 5 m/s 697 mmHg 64%
19:00 +27°C° 0 mm 4 m/s 697 mmHg 69%
20:00 +26°C° 0 mm 4 m/s 697 mmHg 74%
21:00 +26°C° 0 mm 4 m/s 697 mmHg 76%
22:00 +25°C° 0 mm 4 m/s 697 mmHg 78%
23:00 +25°C° 0 mm 4 m/s 697 mmHg 79%

24 Juin, Jeudi

Heure Température Précipitation Vent Pression Humidité
00:00 +25°C° 0 mm 4 m/s 697 mmHg 81%
01:00 +23°C° 0 mm 4 m/s 696 mmHg 83%
02:00 +23°C° 0 mm 4 m/s 696 mmHg 84%
03:00 +23°C° 0 mm 4 m/s 696 mmHg 86%
04:00 +22°C° 0 mm 3 m/s 696 mmHg 87%
05:00 +22°C° 0 mm 3 m/s 696 mmHg 88%
06:00 +23°C° 0 mm 4 m/s 696 mmHg 84%
07:00 +25°C° 0 mm 4 m/s 697 mmHg 79%
08:00 +26°C° 0 mm 5 m/s 697 mmHg 75%
09:00 +27°C° 0 mm 5 m/s 697 mmHg 70%
10:00 +28°C° 0 mm 6 m/s 697 mmHg 65%
11:00 +29°C° 0 mm 6 m/s 697 mmHg 60%
12:00 +30°C° 0 mm 6 m/s 697 mmHg 58%
13:00 +30°C° 0 mm 6 m/s 697 mmHg 56%
14:00 +32°C° 0 mm 6 m/s 696 mmHg 53%
15:00 +30°C° 0.1 mm 6 m/s 696 mmHg 56%
16:00 +29°C° 0.1 mm 6 m/s 696 mmHg 58%
17:00 +28°C° 0.1 mm 6 m/s 696 mmHg 61%
18:00 +28°C° 0 mm 5 m/s 696 mmHg 65%
19:00 +27°C° 0 mm 5 m/s 696 mmHg 70%
20:00 +26°C° 0 mm 4 m/s 697 mmHg 74%
21:00 +25°C° 0 mm 4 m/s 697 mmHg 76%
22:00 +25°C° 0 mm 4 m/s 697 mmHg 77%
23:00 +25°C° 0 mm 4 m/s 697 mmHg 79%

25 Juin, Vendredi

Heure Température Précipitation Vent Pression Humidité
00:00 +23°C° 0 mm 4 m/s 696 mmHg 81%
01:00 +23°C° 0 mm 4 m/s 696 mmHg 83%
02:00 +23°C° 0 mm 4 m/s 695 mmHg 85%
03:00 +23°C° 0 mm 4 m/s 695 mmHg 86%
04:00 +22°C° 0 mm 4 m/s 695 mmHg 87%
05:00 +22°C° 0 mm 4 m/s 695 mmHg 88%
06:00 +23°C° 0 mm 4 m/s 695 mmHg 83%
07:00 +25°C° 0 mm 5 m/s 696 mmHg 78%
08:00 +26°C° 0 mm 6 m/s 696 mmHg 73%
09:00 +27°C° 0.1 mm 6 m/s 696 mmHg 69%
10:00 +28°C° 0.1 mm 7 m/s 696 mmHg 65%
11:00 +29°C° 0.1 mm 7 m/s 696 mmHg 62%
12:00 +29°C° 0.1 mm 7 m/s 696 mmHg 60%
13:00 +29°C° 0.1 mm 7 m/s 696 mmHg 58%
14:00 +30°C° 0.1 mm 7 m/s 695 mmHg 57%
15:00 +29°C° 0.1 mm 7 m/s 695 mmHg 59%
16:00 +29°C° 0.1 mm 7 m/s 695 mmHg 60%
17:00 +28°C° 0.1 mm 7 m/s 695 mmHg 62%
18:00 +27°C° 0.1 mm 6 m/s 695 mmHg 67%
19:00 +26°C° 0.1 mm 5 m/s 695 mmHg 72%
20:00 +25°C° 0.1 mm 5 m/s 695 mmHg 77%
21:00 +25°C° 0 mm 4 m/s 695 mmHg 78%
22:00 +25°C° 0 mm 4 m/s 696 mmHg 79%
23:00 +23°C° 0 mm 4 m/s 696 mmHg 80%
Voir plus

Nous avons besoin de votre consentement

Meteoprog et ses fournisseurs de services peuvent stocker et accéder à des données personnelles telles que des cookies, des identifiants d'appareils ou d'autres technologies similaires sur votre appareil et traiter ces données pour personnaliser le contenu et les publicités, ainsi que pour fournir des fonctionnalités de médias sociaux et analyser le trafic.

  • Stocker et/ou accéder à des informations sur votre appareil

    Des cookies, des identifiants d'appareils ou d'autres informations peuvent être stockés ou accessibles sur votre appareil aux fins indiquées ci-dessus.

  • Annonces et contenus personnalisés, mesure des annonces et des contenus, connaissance de l'audience et développement de produits

    Les annonces et le contenu peuvent être personnalisés en fonction d'un profil. D'autres données peuvent être ajoutées pour mieux personnaliser les annonces et le contenu. Les performances des publicités et du contenu peuvent être mesurées. Il est possible d'obtenir des informations sur le public qui a vu les publicités et le contenu. Ces données peuvent être utilisées pour développer ou améliorer l'expérience de l'utilisateur, les systèmes et les logiciels.

En cliquant sur "J'accepte", vous autorisez l'utilisation de cookies, des identifiants d'appareils, des balises web ou d'autres technologies similaires. Vos paramètres peuvent être modifiés dans le navigateur de votre appareil.

Dans certains cas, des intérêts légitimes peuvent être invoqués plutôt qu'un consentement. Vous pouvez en savoir plus à ce sujet dans notre Politique de confidentialité et de cookies.